Year,Month,Day,Hour,Minute,Value (Times are PST for windspeed in km/hr)
2014,08,30,00,00,2.60
2014,08,30,00,01,2.20
2014,08,30,00,02,2.30
2014,08,30,00,03,2.90
2014,08,30,00,04,5.40
2014,08,30,00,05,3.70
2014,08,30,00,06,2.80
2014,08,30,00,07,2.10
2014,08,30,00,08,2.30
2014,08,30,00,09,2.80
2014,08,30,00,10,1.70
2014,08,30,00,11,2.50
2014,08,30,00,12,2.10
2014,08,30,00,13,2.90
2014,08,30,00,14,2.70
2014,08,30,00,15,2.30
2014,08,30,00,16,2.40
2014,08,30,00,17,2.90
2014,08,30,00,18,3.00
2014,08,30,00,19,1.90
2014,08,30,00,20,1.20
2014,08,30,00,21,1.40
2014,08,30,00,22,0.70
2014,08,30,00,23,0.10
2014,08,30,00,24,0.10
2014,08,30,00,25,0.20
2014,08,30,00,26,0.40
2014,08,30,00,27,1.40
2014,08,30,00,28,1.60
2014,08,30,00,29,1.40
2014,08,30,00,30,1.70
2014,08,30,00,31,2.90
2014,08,30,00,32,3.40
2014,08,30,00,33,3.70
2014,08,30,00,34,3.80
2014,08,30,00,35,2.90
2014,08,30,00,36,2.70
2014,08,30,00,37,2.60
2014,08,30,00,38,2.70
2014,08,30,00,39,3.10
2014,08,30,00,40,3.00
2014,08,30,00,41,2.60
2014,08,30,00,42,2.30
2014,08,30,00,43,1.70
2014,08,30,00,44,2.30
2014,08,30,00,45,1.90
2014,08,30,00,46,3.10
2014,08,30,00,47,3.40
2014,08,30,00,48,2.90
2014,08,30,00,49,3.50
2014,08,30,00,50,2.30
2014,08,30,00,51,1.30
2014,08,30,00,52,2.60
2014,08,30,00,53,2.70
2014,08,30,00,54,1.30
2014,08,30,00,55,2.70
2014,08,30,00,56,2.20
2014,08,30,00,57,2.60
2014,08,30,00,58,1.50
2014,08,30,00,59,2.20
2014,08,30,01,00,2.60
2014,08,30,01,01,2.10
2014,08,30,01,02,1.30
2014,08,30,01,03,1.30
2014,08,30,01,04,2.60
2014,08,30,01,05,3.10
2014,08,30,01,06,2.90
2014,08,30,01,07,3.10
2014,08,30,01,08,2.80
2014,08,30,01,09,2.80
2014,08,30,01,10,2.00
2014,08,30,01,11,1.90
2014,08,30,01,12,1.40
2014,08,30,01,13,2.30
2014,08,30,01,14,1.70
2014,08,30,01,15,1.10
2014,08,30,01,16,1.20
2014,08,30,01,17,0.80
2014,08,30,01,18,1.60
2014,08,30,01,19,1.40
2014,08,30,01,20,0.80
2014,08,30,01,21,1.40
2014,08,30,01,22,1.40
2014,08,30,01,23,2.30
2014,08,30,01,24,2.40
2014,08,30,01,25,1.80
2014,08,30,01,26,2.30
2014,08,30,01,27,2.40
2014,08,30,01,28,2.30
2014,08,30,01,29,1.40
2014,08,30,01,30,1.30
2014,08,30,01,31,1.20
2014,08,30,01,32,0.50
2014,08,30,01,33,1.40
2014,08,30,01,34,1.40
2014,08,30,01,35,0.80
2014,08,30,01,36,1.40
2014,08,30,01,37,1.40
2014,08,30,01,38,2.10
2014,08,30,01,39,2.40
2014,08,30,01,40,2.20
2014,08,30,01,41,2.10
2014,08,30,01,42,2.30
2014,08,30,01,43,3.00
2014,08,30,01,44,2.50
2014,08,30,01,45,2.70
2014,08,30,01,46,2.10
2014,08,30,01,47,2.00
2014,08,30,01,48,1.40
2014,08,30,01,49,0.50
2014,08,30,01,50,0.60
2014,08,30,01,51,0.00
2014,08,30,01,52,0.30
2014,08,30,01,53,0.00
2014,08,30,01,54,0.00
2014,08,30,01,55,0.00
2014,08,30,01,56,0.00
2014,08,30,01,57,0.10
2014,08,30,01,58,0.80
2014,08,30,01,59,2.00
2014,08,30,02,00,2.30
2014,08,30,02,01,1.60
2014,08,30,02,02,2.00
2014,08,30,02,03,1.30
2014,08,30,02,04,0.70
2014,08,30,02,05,1.80
2014,08,30,02,06,2.10
2014,08,30,02,07,1.40
2014,08,30,02,08,3.00
2014,08,30,02,09,3.00
2014,08,30,02,10,1.40
2014,08,30,02,11,2.00
2014,08,30,02,12,2.00
2014,08,30,02,13,1.70
2014,08,30,02,14,2.10
2014,08,30,02,15,2.00
2014,08,30,02,16,2.00
2014,08,30,02,17,1.40
2014,08,30,02,18,1.70
2014,08,30,02,19,1.30
2014,08,30,02,20,1.40
2014,08,30,02,21,1.30
2014,08,30,02,22,1.10
2014,08,30,02,23,1.80
2014,08,30,02,24,1.70
2014,08,30,02,25,1.10
2014,08,30,02,26,2.20
2014,08,30,02,27,3.10
2014,08,30,02,28,1.60
2014,08,30,02,29,2.40
2014,08,30,02,30,3.20
2014,08,30,02,31,3.10
2014,08,30,02,32,2.80
2014,08,30,02,33,3.40
2014,08,30,02,34,4.20
2014,08,30,02,35,4.40
2014,08,30,02,36,4.00
2014,08,30,02,37,2.60
2014,08,30,02,38,0.40
2014,08,30,02,39,0.80
2014,08,30,02,40,1.40
2014,08,30,02,41,1.40
2014,08,30,02,42,2.30
2014,08,30,02,43,2.60
2014,08,30,02,44,2.60
2014,08,30,02,45,2.10
2014,08,30,02,46,1.80
2014,08,30,02,47,1.90
2014,08,30,02,48,1.00
2014,08,30,02,49,1.90
2014,08,30,02,50,1.70
2014,08,30,02,51,1.90
2014,08,30,02,52,2.00
2014,08,30,02,53,1.30
2014,08,30,02,54,0.50
2014,08,30,02,55,0.00
2014,08,30,02,56,0.10
2014,08,30,02,57,0.50
2014,08,30,02,58,0.20
2014,08,30,02,59,1.40
2014,08,30,03,00,2.00
2014,08,30,03,01,0.90
2014,08,30,03,02,0.40
2014,08,30,03,03,1.30
2014,08,30,03,04,2.00
2014,08,30,03,05,2.30
2014,08,30,03,06,2.60
2014,08,30,03,07,3.20
2014,08,30,03,08,3.10
2014,08,30,03,09,3.90
2014,08,30,03,10,4.00
2014,08,30,03,11,3.40
2014,08,30,03,12,3.30
2014,08,30,03,13,2.80
2014,08,30,03,14,1.90
2014,08,30,03,15,1.90
2014,08,30,03,16,1.10
2014,08,30,03,17,1.00
2014,08,30,03,18,1.00
2014,08,30,03,19,0.10
2014,08,30,03,20,0.00
2014,08,30,03,21,0.00
2014,08,30,03,22,0.40
2014,08,30,03,23,1.30
2014,08,30,03,24,1.30
2014,08,30,03,25,1.00
2014,08,30,03,26,1.00
2014,08,30,03,27,1.00
2014,08,30,03,28,1.60
2014,08,30,03,29,2.00
2014,08,30,03,30,2.20
2014,08,30,03,31,2.20
2014,08,30,03,32,2.00
2014,08,30,03,33,1.60
2014,08,30,03,34,0.70
2014,08,30,03,35,0.00
2014,08,30,03,36,0.50
2014,08,30,03,37,1.60
2014,08,30,03,38,1.70
2014,08,30,03,39,1.70
2014,08,30,03,40,1.70
2014,08,30,03,41,0.90
2014,08,30,03,42,1.10
2014,08,30,03,43,1.80
2014,08,30,03,44,1.20
2014,08,30,03,45,0.90
2014,08,30,03,46,0.20
2014,08,30,03,47,0.10
2014,08,30,03,48,0.40
2014,08,30,03,49,1.40
2014,08,30,03,50,1.30
2014,08,30,03,51,1.00
2014,08,30,03,52,1.00
2014,08,30,03,53,0.40
2014,08,30,03,54,0.60
2014,08,30,03,55,0.60
2014,08,30,03,56,1.10
2014,08,30,03,57,1.20
2014,08,30,03,58,0.80
2014,08,30,03,59,0.70
2014,08,30,04,00,0.80
2014,08,30,04,01,0.80
2014,08,30,04,02,0.70
2014,08,30,04,03,1.60
2014,08,30,04,04,1.50
2014,08,30,04,05,0.80
2014,08,30,04,06,1.00
2014,08,30,04,07,0.70
2014,08,30,04,08,0.60
2014,08,30,04,09,0.40
2014,08,30,04,10,0.30
2014,08,30,04,11,1.40
2014,08,30,04,12,1.80
2014,08,30,04,13,1.20
2014,08,30,04,14,0.40
2014,08,30,04,15,0.10
2014,08,30,04,16,0.10
2014,08,30,04,17,0.30
2014,08,30,04,18,1.00
2014,08,30,04,19,0.90
2014,08,30,04,20,0.50
2014,08,30,04,21,1.00
2014,08,30,04,22,1.80
2014,08,30,04,23,0.40
2014,08,30,04,24,1.20
2014,08,30,04,25,1.60
2014,08,30,04,26,1.10
2014,08,30,04,27,1.00
2014,08,30,04,28,0.40
2014,08,30,04,29,0.20
2014,08,30,04,30,0.20
2014,08,30,04,31,0.00
2014,08,30,04,32,0.00
2014,08,30,04,33,0.00
2014,08,30,04,34,0.10
2014,08,30,04,35,0.00
2014,08,30,04,36,0.10
2014,08,30,04,37,0.70
2014,08,30,04,38,0.70
2014,08,30,04,39,1.70
2014,08,30,04,40,1.60
2014,08,30,04,41,1.50
2014,08,30,04,42,1.10
2014,08,30,04,43,1.10
2014,08,30,04,44,1.70
2014,08,30,04,45,2.10
2014,08,30,04,46,1.70
2014,08,30,04,47,1.20
2014,08,30,04,48,0.50
2014,08,30,04,49,1.30
2014,08,30,04,50,1.70
2014,08,30,04,51,2.10
2014,08,30,04,52,2.00
2014,08,30,04,53,2.30
2014,08,30,04,54,1.20
2014,08,30,04,55,1.90
2014,08,30,04,56,2.10
2014,08,30,04,57,1.60
2014,08,30,04,58,2.60
2014,08,30,04,59,2.50
2014,08,30,05,00,2.40
2014,08,30,05,01,2.70
2014,08,30,05,02,1.60
2014,08,30,05,03,1.60
2014,08,30,05,04,2.90
2014,08,30,05,05,3.40
2014,08,30,05,06,0.80
2014,08,30,05,07,0.50
2014,08,30,05,08,0.80
2014,08,30,05,09,1.30
2014,08,30,05,10,1.60
2014,08,30,05,11,2.00
2014,08,30,05,12,2.10
2014,08,30,05,13,2.40
2014,08,30,05,14,1.50
2014,08,30,05,15,1.10
2014,08,30,05,16,3.10
2014,08,30,05,17,2.20
2014,08,30,05,18,2.90
2014,08,30,05,19,3.10
2014,08,30,05,20,2.10
2014,08,30,05,21,1.60
2014,08,30,05,22,1.00
2014,08,30,05,23,1.70
2014,08,30,05,24,1.70
2014,08,30,05,25,1.40
2014,08,30,05,26,0.20
2014,08,30,05,27,0.30
2014,08,30,05,28,0.80
2014,08,30,05,29,0.30
2014,08,30,05,30,0.70
2014,08,30,05,31,1.70
2014,08,30,05,32,2.40
2014,08,30,05,33,1.70
2014,08,30,05,34,1.90
2014,08,30,05,35,1.80
2014,08,30,05,36,2.30
2014,08,30,05,37,2.30
2014,08,30,05,38,1.60
2014,08,30,05,39,0.40
2014,08,30,05,40,0.70
2014,08,30,05,41,1.10
2014,08,30,05,42,0.50
2014,08,30,05,43,0.60
2014,08,30,05,44,0.10
2014,08,30,05,45,0.30
2014,08,30,05,46,1.00
2014,08,30,05,47,1.60
2014,08,30,05,48,1.70
2014,08,30,05,49,1.20
2014,08,30,05,50,1.60
2014,08,30,05,51,2.00
2014,08,30,05,52,2.00
2014,08,30,05,53,2.10
2014,08,30,05,54,2.40
2014,08,30,05,55,1.90
2014,08,30,05,56,1.30
2014,08,30,05,57,1.40
2014,08,30,05,58,1.40
2014,08,30,05,59,0.20
2014,08,30,06,00,0.10
2014,08,30,06,01,1.10
2014,08,30,06,02,2.30
2014,08,30,06,03,2.10
2014,08,30,06,04,1.80
2014,08,30,06,05,0.80
2014,08,30,06,06,0.10
2014,08,30,06,07,1.40
2014,08,30,06,08,0.40
2014,08,30,06,09,0.00
2014,08,30,06,10,0.30
2014,08,30,06,11,1.10
2014,08,30,06,12,1.60
2014,08,30,06,13,2.10
2014,08,30,06,14,2.50
2014,08,30,06,15,2.40
2014,08,30,06,16,2.10
2014,08,30,06,17,2.80
2014,08,30,06,18,1.90
2014,08,30,06,19,2.00
2014,08,30,06,20,2.50
2014,08,30,06,21,2.40
2014,08,30,06,22,2.40
2014,08,30,06,23,2.60
2014,08,30,06,24,1.70
2014,08,30,06,25,1.30
2014,08,30,06,26,0.10
2014,08,30,06,27,0.20
2014,08,30,06,28,0.60
2014,08,30,06,29,0.50
2014,08,30,06,30,1.40
2014,08,30,06,31,0.70
2014,08,30,06,32,1.10
2014,08,30,06,33,0.40
2014,08,30,06,34,0.50
2014,08,30,06,35,0.50
2014,08,30,06,36,0.20
2014,08,30,06,37,0.00
2014,08,30,06,38,0.10
2014,08,30,06,39,0.80
2014,08,30,06,40,0.70
2014,08,30,06,41,1.40
2014,08,30,06,42,1.50
2014,08,30,06,43,1.40
2014,08,30,06,44,1.70
2014,08,30,06,45,2.50
2014,08,30,06,46,3.30
2014,08,30,06,47,2.70
2014,08,30,06,48,2.50
2014,08,30,06,49,2.10
2014,08,30,06,50,2.60
2014,08,30,06,51,3.20
2014,08,30,06,52,3.70
2014,08,30,06,53,3.30
2014,08,30,06,54,2.40
2014,08,30,06,55,2.30
2014,08,30,06,56,2.10
2014,08,30,06,57,2.00
2014,08,30,06,58,2.10
2014,08,30,06,59,0.70
2014,08,30,07,00,2.20
2014,08,30,07,01,3.30
2014,08,30,07,02,0.70
2014,08,30,07,03,2.30
2014,08,30,07,04,1.90
2014,08,30,07,05,1.80
2014,08,30,07,06,2.10
2014,08,30,07,07,2.90
2014,08,30,07,08,2.90
2014,08,30,07,09,2.90
2014,08,30,07,10,3.30
2014,08,30,07,11,3.00
2014,08,30,07,12,1.90
2014,08,30,07,13,2.20
2014,08,30,07,14,0.80
2014,08,30,07,15,0.80
2014,08,30,07,16,1.60
2014,08,30,07,17,1.10
2014,08,30,07,18,1.00
2014,08,30,07,19,0.70
2014,08,30,07,20,0.20
2014,08,30,07,21,0.00
2014,08,30,07,22,0.00
2014,08,30,07,23,0.10
2014,08,30,07,24,0.10
2014,08,30,07,25,0.00
2014,08,30,07,26,0.20
2014,08,30,07,27,0.20
2014,08,30,07,28,0.50
2014,08,30,07,29,1.60
2014,08,30,07,30,1.40
2014,08,30,07,31,1.00
2014,08,30,07,32,0.70
2014,08,30,07,33,0.20
2014,08,30,07,34,1.10
2014,08,30,07,35,1.40
2014,08,30,07,36,0.50
2014,08,30,07,37,0.10
2014,08,30,07,38,0.10
2014,08,30,07,39,0.00
2014,08,30,07,40,0.00
2014,08,30,07,41,0.00
2014,08,30,07,42,0.40
2014,08,30,07,43,1.80
2014,08,30,07,44,2.00
2014,08,30,07,45,1.70
2014,08,30,07,46,1.50
2014,08,30,07,47,1.60
2014,08,30,07,48,0.80
2014,08,30,07,49,0.20
2014,08,30,07,50,0.40
2014,08,30,07,51,0.70
2014,08,30,07,52,2.00
2014,08,30,07,53,1.90
2014,08,30,07,54,1.70
2014,08,30,07,55,2.00
2014,08,30,07,56,1.10
2014,08,30,07,57,1.00
2014,08,30,07,58,0.20
2014,08,30,07,59,0.10
2014,08,30,08,00,0.10
2014,08,30,08,01,0.00
2014,08,30,08,02,0.40
2014,08,30,08,03,0.60
2014,08,30,08,04,0.30
2014,08,30,08,05,0.00
2014,08,30,08,06,0.60
2014,08,30,08,07,2.20
2014,08,30,08,08,2.10
2014,08,30,08,09,1.70
2014,08,30,08,10,1.10
2014,08,30,08,11,2.00
2014,08,30,08,12,1.90
2014,08,30,08,13,2.00
2014,08,30,08,14,1.50
2014,08,30,08,15,0.50
2014,08,30,08,16,0.10
2014,08,30,08,17,0.10
2014,08,30,08,18,1.50
2014,08,30,08,19,2.40
2014,08,30,08,20,2.50
2014,08,30,08,21,3.60
2014,08,30,08,22,1.90
2014,08,30,08,23,2.90
2014,08,30,08,24,1.70
2014,08,30,08,25,2.20
2014,08,30,08,26,2.20
2014,08,30,08,27,2.30
2014,08,30,08,28,1.90
2014,08,30,08,29,0.80
2014,08,30,08,30,0.40
2014,08,30,08,31,0.60
2014,08,30,08,32,0.80
2014,08,30,08,33,1.00
2014,08,30,08,34,0.80
2014,08,30,08,35,1.10
2014,08,30,08,36,0.20
2014,08,30,08,37,0.80
2014,08,30,08,38,0.10
2014,08,30,08,39,0.10
2014,08,30,08,40,0.20
2014,08,30,08,41,0.70
2014,08,30,08,42,1.30
2014,08,30,08,43,0.10
2014,08,30,08,44,0.10
2014,08,30,08,45,0.20
2014,08,30,08,46,0.00
2014,08,30,08,47,0.00
2014,08,30,08,48,0.10
2014,08,30,08,49,0.10
2014,08,30,08,50,0.20
2014,08,30,08,51,0.00
2014,08,30,08,52,0.10
2014,08,30,08,53,0.60
2014,08,30,08,54,0.40
2014,08,30,08,55,0.00
2014,08,30,08,56,1.30
2014,08,30,08,57,1.90
2014,08,30,08,58,1.40
2014,08,30,08,59,2.10
2014,08,30,09,00,0.90
2014,08,30,09,01,0.70
2014,08,30,09,02,1.10
2014,08,30,09,03,1.30
2014,08,30,09,04,0.40
2014,08,30,09,05,1.10
2014,08,30,09,06,1.40
2014,08,30,09,07,0.80
2014,08,30,09,08,1.70
2014,08,30,09,09,1.90
2014,08,30,09,10,1.90
2014,08,30,09,11,0.50
2014,08,30,09,12,0.40
2014,08,30,09,13,1.30
2014,08,30,09,14,1.60
2014,08,30,09,15,2.00
2014,08,30,09,16,1.30
2014,08,30,09,17,2.00
2014,08,30,09,18,1.70
2014,08,30,09,19,0.70
2014,08,30,09,20,1.00
2014,08,30,09,21,1.60
2014,08,30,09,22,1.60
2014,08,30,09,23,2.00
2014,08,30,09,24,2.30
2014,08,30,09,25,1.60
2014,08,30,09,26,1.10
2014,08,30,09,27,2.10
2014,08,30,09,28,2.30
2014,08,30,09,29,2.10
2014,08,30,09,30,3.20
2014,08,30,09,31,1.90
2014,08,30,09,32,1.60
2014,08,30,09,33,0.10
2014,08,30,09,34,0.00
2014,08,30,09,35,0.40
2014,08,30,09,36,1.90
2014,08,30,09,37,0.70
2014,08,30,09,38,0.90
2014,08,30,09,39,0.70
2014,08,30,09,40,0.50
2014,08,30,09,41,1.60
2014,08,30,09,42,2.90
2014,08,30,09,43,3.80
2014,08,30,09,44,2.10
2014,08,30,09,45,2.60
2014,08,30,09,46,2.20
2014,08,30,09,47,2.30
2014,08,30,09,48,2.90
2014,08,30,09,49,1.20
2014,08,30,09,50,0.60
2014,08,30,09,51,1.40
2014,08,30,09,52,0.20
2014,08,30,09,53,0.10
2014,08,30,09,54,0.10
2014,08,30,09,55,0.10
2014,08,30,09,56,1.50
2014,08,30,09,57,1.10
2014,08,30,09,58,1.10
2014,08,30,09,59,1.70
2014,08,30,10,00,1.40
2014,08,30,10,01,2.10
2014,08,30,10,02,1.90
2014,08,30,10,03,1.10
2014,08,30,10,04,3.30
2014,08,30,10,05,4.20
2014,08,30,10,06,3.30
2014,08,30,10,07,3.30
2014,08,30,10,08,2.30
2014,08,30,10,09,2.50
2014,08,30,10,10,3.10
2014,08,30,10,11,2.80
2014,08,30,10,12,2.70
2014,08,30,10,13,2.00
2014,08,30,10,14,4.80
2014,08,30,10,15,4.90
2014,08,30,10,16,3.50
2014,08,30,10,17,2.00
2014,08,30,10,18,3.60
2014,08,30,10,19,4.50
2014,08,30,10,20,4.00
2014,08,30,10,21,4.30
2014,08,30,10,22,2.60
2014,08,30,10,23,1.70
2014,08,30,10,24,2.30
2014,08,30,10,25,2.10
2014,08,30,10,26,0.80
2014,08,30,10,27,2.40
2014,08,30,10,28,3.50
2014,08,30,10,29,2.90
2014,08,30,10,30,2.70
2014,08,30,10,31,2.30
2014,08,30,10,32,1.90
2014,08,30,10,33,1.90
2014,08,30,10,34,3.50
2014,08,30,10,35,2.20
2014,08,30,10,36,2.00
2014,08,30,10,37,2.90
2014,08,30,10,38,2.90
2014,08,30,10,39,2.90
2014,08,30,10,40,1.40
2014,08,30,10,41,1.80
2014,08,30,10,42,2.60
2014,08,30,10,43,2.30
2014,08,30,10,44,1.60
2014,08,30,10,45,2.20
2014,08,30,10,46,2.00
2014,08,30,10,47,2.00
2014,08,30,10,48,1.90
2014,08,30,10,49,0.70
2014,08,30,10,50,2.10
2014,08,30,10,51,3.40
2014,08,30,10,52,2.70
2014,08,30,10,53,2.90
2014,08,30,10,54,3.00
2014,08,30,10,55,3.90
2014,08,30,10,56,3.40
2014,08,30,10,57,2.50
2014,08,30,10,58,3.40
2014,08,30,10,59,1.90
2014,08,30,11,00,3.70
2014,08,30,11,01,4.30
2014,08,30,11,02,4.60
2014,08,30,11,03,3.70
2014,08,30,11,04,3.40
2014,08,30,11,05,2.70
2014,08,30,11,06,3.20
2014,08,30,11,07,2.60
2014,08,30,11,08,3.00
2014,08,30,11,09,2.80
2014,08,30,11,10,2.00
2014,08,30,11,11,2.80
2014,08,30,11,12,2.10
2014,08,30,11,13,1.00
2014,08,30,11,14,0.80
2014,08,30,11,15,0.40
2014,08,30,11,16,0.70
2014,08,30,11,17,0.80
2014,08,30,11,18,0.60
2014,08,30,11,19,0.70
2014,08,30,11,20,1.00
2014,08,30,11,21,0.70
2014,08,30,11,22,0.70
2014,08,30,11,23,2.10
2014,08,30,11,24,3.10
2014,08,30,11,25,2.60
2014,08,30,11,26,1.90
2014,08,30,11,27,2.00
2014,08,30,11,28,2.10
2014,08,30,11,29,1.60
2014,08,30,11,30,2.40
2014,08,30,11,31,2.50
2014,08,30,11,32,2.00
2014,08,30,11,33,1.60
2014,08,30,11,34,2.20
2014,08,30,11,35,2.60
2014,08,30,11,36,3.40
2014,08,30,11,37,2.30
2014,08,30,11,38,2.70
2014,08,30,11,39,2.30
2014,08,30,11,40,2.10
2014,08,30,11,41,3.30
2014,08,30,11,42,4.50
2014,08,30,11,43,3.10
2014,08,30,11,44,2.60
2014,08,30,11,45,2.90
2014,08,30,11,46,2.40
2014,08,30,11,47,4.90
2014,08,30,11,48,3.00
2014,08,30,11,49,4.30
2014,08,30,11,50,2.00
2014,08,30,11,51,3.60
2014,08,30,11,52,4.10
2014,08,30,11,53,2.00
2014,08,30,11,54,2.70
2014,08,30,11,55,3.90
2014,08,30,11,56,4.60
2014,08,30,11,57,5.30
2014,08,30,11,58,4.50
2014,08,30,11,59,5.10
2014,08,30,12,00,5.20
2014,08,30,12,01,6.00
2014,08,30,12,02,4.40
2014,08,30,12,03,3.30
2014,08,30,12,04,6.00
2014,08,30,12,05,2.70
2014,08,30,12,06,4.00
2014,08,30,12,07,4.90
2014,08,30,12,08,3.70
2014,08,30,12,09,4.20
2014,08,30,12,10,4.60
2014,08,30,12,11,1.80
2014,08,30,12,12,2.30
2014,08,30,12,13,1.60
2014,08,30,12,14,3.80
2014,08,30,12,15,3.40
2014,08,30,12,16,3.80
2014,08,30,12,17,1.60
2014,08,30,12,18,1.80
2014,08,30,12,19,1.50
2014,08,30,12,20,1.60
2014,08,30,12,21,1.10
2014,08,30,12,22,1.50
2014,08,30,12,23,2.00
2014,08,30,12,24,2.10
2014,08,30,12,25,3.30
2014,08,30,12,26,2.40
2014,08,30,12,27,2.60
2014,08,30,12,28,1.70
2014,08,30,12,29,1.20
2014,08,30,12,30,3.00
2014,08,30,12,31,1.20
2014,08,30,12,32,1.90
2014,08,30,12,33,0.50
2014,08,30,12,34,1.30
2014,08,30,12,35,1.50
2014,08,30,12,36,0.50
2014,08,30,12,37,1.60
2014,08,30,12,38,1.20
2014,08,30,12,39,1.40
2014,08,30,12,40,1.00
2014,08,30,12,41,1.90
2014,08,30,12,42,1.40
2014,08,30,12,43,1.10
2014,08,30,12,44,1.00
2014,08,30,12,45,1.90
2014,08,30,12,46,0.40
2014,08,30,12,47,1.10
2014,08,30,12,48,0.10
2014,08,30,12,49,1.00
2014,08,30,12,50,1.70
2014,08,30,12,51,2.00
2014,08,30,12,52,2.70
2014,08,30,12,53,2.70
2014,08,30,12,54,0.90
2014,08,30,12,55,0.80
2014,08,30,12,56,2.60
2014,08,30,12,57,2.90
2014,08,30,12,58,3.20
2014,08,30,12,59,3.50
2014,08,30,13,00,6.10
2014,08,30,13,01,4.00
2014,08,30,13,02,3.70
2014,08,30,13,03,3.00
2014,08,30,13,04,4.70
2014,08,30,13,05,3.60
2014,08,30,13,06,2.10
2014,08,30,13,07,1.70
2014,08,30,13,08,4.30
2014,08,30,13,09,5.10
2014,08,30,13,10,2.10
2014,08,30,13,11,1.70
2014,08,30,13,12,1.80
2014,08,30,13,13,1.70
2014,08,30,13,14,2.80
2014,08,30,13,15,3.40
2014,08,30,13,16,3.70
2014,08,30,13,17,2.80
2014,08,30,13,18,2.20
2014,08,30,13,19,1.70
2014,08,30,13,20,3.60
2014,08,30,13,21,3.40
2014,08,30,13,22,2.70
2014,08,30,13,23,1.30
2014,08,30,13,24,3.20
2014,08,30,13,25,1.30
2014,08,30,13,26,2.20
2014,08,30,13,27,1.90
2014,08,30,13,28,2.70
2014,08,30,13,29,1.90
2014,08,30,13,30,1.70
2014,08,30,13,31,1.30
2014,08,30,13,32,1.00
2014,08,30,13,33,1.40
2014,08,30,13,34,2.60
2014,08,30,13,35,3.00
2014,08,30,13,36,3.50
2014,08,30,13,37,1.70
2014,08,30,13,38,3.60
2014,08,30,13,39,3.00
2014,08,30,13,40,4.00
2014,08,30,13,41,3.30
2014,08,30,13,42,3.30
2014,08,30,13,43,1.20
2014,08,30,13,44,1.80
2014,08,30,13,45,1.10
2014,08,30,13,46,1.60
2014,08,30,13,47,1.50
2014,08,30,13,48,2.40
2014,08,30,13,49,2.60
2014,08,30,13,50,2.10
2014,08,30,13,51,2.30
2014,08,30,13,52,2.90
2014,08,30,13,53,3.80
2014,08,30,13,54,3.70
2014,08,30,13,55,2.60
2014,08,30,13,56,2.10
2014,08,30,13,57,2.10
2014,08,30,13,58,4.20
2014,08,30,13,59,3.50
2014,08,30,14,00,2.20
2014,08,30,14,01,2.50
2014,08,30,14,02,4.10
2014,08,30,14,03,2.10
2014,08,30,14,04,2.30
2014,08,30,14,05,3.00
2014,08,30,14,06,3.00
2014,08,30,14,07,3.20
2014,08,30,14,08,2.60
2014,08,30,14,09,2.50
2014,08,30,14,10,2.60
2014,08,30,14,11,1.40
2014,08,30,14,12,0.70
2014,08,30,14,13,2.00
2014,08,30,14,14,1.70
2014,08,30,14,15,2.70
2014,08,30,14,16,1.40
2014,08,30,14,17,1.80
2014,08,30,14,18,1.20
2014,08,30,14,19,1.60
2014,08,30,14,20,1.30
2014,08,30,14,21,2.60
2014,08,30,14,22,1.40
2014,08,30,14,23,2.70
2014,08,30,14,24,2.20
2014,08,30,14,25,1.30
2014,08,30,14,26,0.60
2014,08,30,14,27,0.30
2014,08,30,14,28,1.70
2014,08,30,14,29,2.50
2014,08,30,14,30,1.70
2014,08,30,14,31,2.10
2014,08,30,14,32,1.10
2014,08,30,14,33,2.40
2014,08,30,14,34,0.80
2014,08,30,14,35,1.80
2014,08,30,14,36,1.70
2014,08,30,14,37,0.80
2014,08,30,14,38,0.60
2014,08,30,14,39,1.60
2014,08,30,14,40,1.70
2014,08,30,14,41,2.00
2014,08,30,14,42,2.30
2014,08,30,14,43,0.50
2014,08,30,14,44,1.60
2014,08,30,14,45,2.70
2014,08,30,14,46,2.30
2014,08,30,14,47,1.30
2014,08,30,14,48,1.10
2014,08,30,14,49,1.40
2014,08,30,14,50,2.40
2014,08,30,14,51,0.60
2014,08,30,14,52,1.10
2014,08,30,14,53,0.70
2014,08,30,14,54,1.40
2014,08,30,14,55,1.40
2014,08,30,14,56,1.60
2014,08,30,14,57,1.70
2014,08,30,14,58,1.80
2014,08,30,14,59,1.60
2014,08,30,15,00,1.10
2014,08,30,15,01,0.80
2014,08,30,15,02,1.80
2014,08,30,15,03,1.00
2014,08,30,15,04,1.10
2014,08,30,15,05,2.00
2014,08,30,15,06,2.10
2014,08,30,15,07,1.90
2014,08,30,15,08,2.10
2014,08,30,15,09,2.10
2014,08,30,15,10,1.40
2014,08,30,15,11,2.00
2014,08,30,15,12,1.30
2014,08,30,15,13,1.60
2014,08,30,15,14,2.30
2014,08,30,15,15,2.00
2014,08,30,15,16,1.60
2014,08,30,15,17,1.60
2014,08,30,15,18,1.50
2014,08,30,15,19,1.20
2014,08,30,15,20,0.70
2014,08,30,15,21,1.10
2014,08,30,15,22,1.40
2014,08,30,15,23,0.90
2014,08,30,15,24,3.30
2014,08,30,15,25,3.50
2014,08,30,15,26,3.00
2014,08,30,15,27,5.20
2014,08,30,15,28,3.20
2014,08,30,15,29,2.90
2014,08,30,15,30,3.50
2014,08,30,15,31,4.50
2014,08,30,15,32,6.00
2014,08,30,15,33,3.70
2014,08,30,15,34,2.90
2014,08,30,15,35,1.80
2014,08,30,15,36,3.80
2014,08,30,15,37,3.60
2014,08,30,15,38,3.40
2014,08,30,15,39,5.70
2014,08,30,15,40,3.20
2014,08,30,15,41,1.10
2014,08,30,15,42,2.10
2014,08,30,15,43,4.10
2014,08,30,15,44,5.30
2014,08,30,15,45,5.30
2014,08,30,15,46,2.10
2014,08,30,15,47,1.70
2014,08,30,15,48,1.80
2014,08,30,15,49,3.40
2014,08,30,15,50,5.10
2014,08,30,15,51,2.90
2014,08,30,15,52,4.30
2014,08,30,15,53,2.60
2014,08,30,15,54,3.00
2014,08,30,15,55,3.60
2014,08,30,15,56,3.70
2014,08,30,15,57,4.00
2014,08,30,15,58,3.00
2014,08,30,15,59,3.90
2014,08,30,16,00,3.20
2014,08,30,16,01,4.00
2014,08,30,16,02,3.90
2014,08,30,16,03,2.30
2014,08,30,16,04,1.90
2014,08,30,16,05,2.10
2014,08,30,16,06,2.20
2014,08,30,16,07,2.70
2014,08,30,16,08,0.50
2014,08,30,16,09,3.90
2014,08,30,16,10,2.00
2014,08,30,16,11,1.30
2014,08,30,16,12,2.90
2014,08,30,16,13,2.40
2014,08,30,16,14,2.40
2014,08,30,16,15,3.00
2014,08,30,16,16,3.30
2014,08,30,16,17,2.90
2014,08,30,16,18,1.50
2014,08,30,16,19,2.60
2014,08,30,16,20,2.40
2014,08,30,16,21,3.00
2014,08,30,16,22,4.20
2014,08,30,16,23,4.50
2014,08,30,16,24,3.30
2014,08,30,16,25,3.70
2014,08,30,16,26,4.10
2014,08,30,16,27,1.90
2014,08,30,16,28,3.00
2014,08,30,16,29,2.50
2014,08,30,16,30,1.90
2014,08,30,16,31,2.40
2014,08,30,16,32,3.00
2014,08,30,16,33,4.40
2014,08,30,16,34,3.20
2014,08,30,16,35,2.40
2014,08,30,16,36,4.00
2014,08,30,16,37,3.70
2014,08,30,16,38,2.60
2014,08,30,16,39,3.00
2014,08,30,16,40,0.70
2014,08,30,16,41,2.60
2014,08,30,16,42,3.00
2014,08,30,16,43,4.30
2014,08,30,16,44,4.30
2014,08,30,16,45,3.10
2014,08,30,16,46,2.00
2014,08,30,16,47,3.10
2014,08,30,16,48,3.60
2014,08,30,16,49,2.10
2014,08,30,16,50,2.40
2014,08,30,16,51,2.40
2014,08,30,16,52,3.60
2014,08,30,16,53,2.60
2014,08,30,16,54,1.50
2014,08,30,16,55,1.60
2014,08,30,16,56,2.30
2014,08,30,16,57,2.80
2014,08,30,16,58,2.50
2014,08,30,16,59,2.80
2014,08,30,17,00,3.50
2014,08,30,17,01,1.30
2014,08,30,17,02,3.50
2014,08,30,17,03,1.50
2014,08,30,17,04,1.00
2014,08,30,17,05,3.30
2014,08,30,17,06,3.10
2014,08,30,17,07,2.10
2014,08,30,17,08,1.00
2014,08,30,17,09,1.10
2014,08,30,17,10,2.60
2014,08,30,17,11,4.60
2014,08,30,17,12,4.60
2014,08,30,17,13,4.60
2014,08,30,17,14,3.20
2014,08,30,17,15,3.10
2014,08,30,17,16,3.00
2014,08,30,17,17,4.30
2014,08,30,17,18,3.70
2014,08,30,17,19,4.30
2014,08,30,17,20,3.30
2014,08,30,17,21,2.30
2014,08,30,17,22,2.10
2014,08,30,17,23,2.40
2014,08,30,17,24,1.60
2014,08,30,17,25,0.90
2014,08,30,17,26,2.20
2014,08,30,17,27,2.70
2014,08,30,17,28,2.70
2014,08,30,17,29,2.60
2014,08,30,17,30,3.20
2014,08,30,17,31,3.00
2014,08,30,17,32,3.20
2014,08,30,17,33,1.50
2014,08,30,17,34,0.70
2014,08,30,17,35,1.20
2014,08,30,17,36,1.70
2014,08,30,17,37,2.40
2014,08,30,17,38,3.10
2014,08,30,17,39,1.90
2014,08,30,17,40,2.70
2014,08,30,17,41,2.70
2014,08,30,17,42,2.60
2014,08,30,17,43,2.40
2014,08,30,17,44,1.30
2014,08,30,17,45,1.80
2014,08,30,17,46,1.70
2014,08,30,17,47,2.90
2014,08,30,17,48,1.30
2014,08,30,17,49,2.10
2014,08,30,17,50,4.10
2014,08,30,17,51,3.30
2014,08,30,17,52,3.10
2014,08,30,17,53,2.40
2014,08,30,17,54,2.30
2014,08,30,17,55,1.30
2014,08,30,17,56,2.10
2014,08,30,17,57,2.70
2014,08,30,17,58,2.30
2014,08,30,17,59,1.90
2014,08,30,18,00,1.90
2014,08,30,18,01,2.30
2014,08,30,18,02,2.10
2014,08,30,18,03,1.40
2014,08,30,18,04,1.60
2014,08,30,18,05,0.20
2014,08,30,18,06,0.80